www.pogodaiklimat.ru

Погода и климат >> Архив погоды >> Россия >> Краснодарский край >> Горячий Ключ


ПОГОДА в Горячем Ключе

  • Прогноз погоды в Горячем Ключе
  • Монитор погоды в Горячем Ключе

АРХИВ ПОГОДЫ в Горячем Ключе

Время (UTC), дата Ветер
(напр.,м/с)
 
Видим.   Явления Облачность Т
(С)
Тd
(С)
f
(%)
Тe
(С)
Тes
(С)
Комфортность P
(гПа)
Po
(гПа)
Тmin
(С)
Tmax
(С)
R
(мм)
R24
(мм)
S
(см)
03 10.09 штиль 0 20 км ясно +10.3 +9.3 94 +9 +9 1017.6 1010.1 +10.2
06 10.09 СВ 1 20 км ясно +18.5 +10.6 60 +20 +26 1018.0 1010.6
09 10.09 В 2 20 км ясно +25.1 +8.8 36 +26 +38 жарко 1017.0 1009.9
12 10.09 В 2 20 км ясно +27.1 +8.4 31 +27 +35 жарко 1016.3 1009.2
15 10.09 В 1
{10}
20 км ясно +25.1 +8.0 34 +25 +26 комфорт 1016.6 1009.5 +27.3
18 10.09 штиль 0 20 км ясно +17.1 +11.4 69 +17 +17 1017.9 1010.5
21 10.09 штиль 0 20 км ясно +14.2 +10.4 78 +14 +14 1018.4 1010.9
00 11.09 штиль 0 20 км ясно +12.5 +10.5 88 +12 +12 1019.3 1011.8
03 11.09 штиль 0 20 км ясно +11.8 +10.2 90 +11 +11 1020.2 1012.7 +11.7
06 11.09 штиль 0 20 км 8/8 600 м
[Cu med, cong]
+19.4 +13.4 68 +21 +22 комфорт 1020.7 1013.4 +11.7
09 11.09 В 1 20 км 3/3 1000 м
[Cu med, cong]
+25.8 +12.3 43 +27 +37 жарко 1020.0 1012.8
12 11.09 В 2
{11}
20 км 1/1 1000 м
[Cu hum]
+28.1 +10.2 33 +29 +35 жарко 1019.6 1012.5
15 11.09 В 1
{10}
20 км ясно +25.9 +7.7 31 +26 +26 жарко 1019.8 1012.7 +28.2
18 11.09 Ю 1 20 км ясно +18.3 +11.0 62 +20 +20 1021.2 1013.8
21 11.09 штиль 0 20 км ясно +14.7 +10.7 77 +14 +14 1021.4 1013.9
00 12.09 штиль 0 20 км ясно +12.2 +9.8 85 +12 +12 1021.4 1013.9
03 12.09 штиль 0 20 км ясно +10.1 +8.8 92 +9 +9 1022.6 1015.0 +10.0
06 12.09 В 1 20 км ясно +17.8 +10.0 60 +19 +25 1022.5 1015.1
09 12.09 СВ 2
{10}
20 км ясно +26.3 +6.6 28 +26 +38 жарко 1020.6 1013.5
12 12.09 В 3 20 км ясно +28.1 +2.6 19 +26 +32 жарко 1019.6 1012.5
15 12.09 СВ 1 20 км ясно +25.0 +4.7 27 +24 +25 комфорт 1019.4 1012.2 +28.2
18 12.09 штиль 0 20 км ясно +16.2 +9.0 62 +16 +16 1020.7 1013.3
21 12.09 Ю 1 20 км ясно +12.7 +8.3 75 +13 +13 1020.1 1012.7
00 13.09 штиль 0 20 км ясно +11.0 +8.0 82 +10 +10 1020.2 1012.7
03 13.09 штиль 0 20 км ясно +9.3 +7.9 91 +8 +8 1021.1 1013.5 +9.1
06 13.09 СВ 1 20 км ясно +16.1 +8.5 61 +17 +23 1021.8 1014.4 +9.1
09 13.09 В 1 20 км ясно +25.2 +7.4 32 +25 +39 комфорт 1020.0 1012.8
12 13.09 СВ 1 20 км ясно +28.2 +3.9 21 +27 +35 жарко 1018.3 1011.2
15 13.09 С 1 20 км ясно +24.7 +5.3 29 +24 +25 комфорт 1018.1 1010.9 +28.3
18 13.09 ЮЗ 1 20 км ясно +14.6 +9.5 71 +15 +15 1019.4 1012.0
21 13.09 Ю 1 20 км ясно +12.0 +8.7 80 +12 +12 1019.6 1012.1
00 14.09 штиль 0 20 км ясно +10.0 +8.5 90 +9 +9 1019.7 1012.2
03 14.09 З 1 20 км ясно +9.2 +8.1 93 +8 +8 1020.0 1012.4 +8.6
06 14.09 В 1 20 км ясно +17.7 +8.3 54 +19 +25 1020.0 1012.6
09 14.09 С 1 20 км ясно +23.4 +10.9 45 +26 +39 жарко 1018.8 1011.5
12 14.09 С 1 20 км 1/1 1000 м
[Cu med, cong]
+26.5 +7.9 31 +26 +34 жарко 1017.5 1010.4
15 14.09 штиль 0 20 км ясно +23.1 +10.6 45 +25 +25 комфорт 1016.8 1009.6 +26.6
18 14.09 ЮЗ 1 20 км ясно +16.4 +11.8 74 +17 +17 1017.9 1010.5
21 14.09 З 1 н/о н/о +14.1 +10.9 81 +14 +14 1018.5 1011.0
00 15.09 З 1 20 км ясно +12.3 +10.2 87 +12 +12 1018.6 1011.1
03 15.09 З 2 20 км 8/0
[Ci fib]
+11.2 +9.4 89 +10 +10 1019.5 1011.9 +10.9
06 15.09 З 1 20 км 8/0 2000 м
[Ac trans Ci]
+16.1 +10.6 70 +17 +21 1019.8 1012.4
09 15.09 СЗ 1 20 км 1/0
[Ci fib]
+25.8 +7.7 32 +26 +39 жарко 1019.4 1012.3
12 15.09 С 1 20 км 3/0 2000 м
[Ac lent Ci]
+27.2 +6.2 26 +26 +34 жарко 1018.5 1011.4
15 15.09 ЮЗ 1 20 км 3/0 2000 м
[Ac lent Ci]
+23.5 +12.3 49 +25 +25 комфорт 1019.2 1012.0 +27.8
18 15.09 З 1 20 км ясно +18.3 +10.9 62 +20 +20 1020.6 1013.3
21 15.09 З 1 20 км ясно +15.9 +8.0 59 +17 +17 1020.6 1013.2
00 16.09 З 1 20 км ясно +11.7 +9.3 85 +12 +12 1020.0 1012.5
03 16.09 штиль 0 20 км ясно +9.1 +7.2 88 +8 +8 1019.0 1011.4 +9.0
06 16.09 СЗ 1 20 км ясно +16.8 +8.4 58 +18 +23 1017.9 1010.6
09 16.09 штиль 0 20 км ясно +23.6 +9.5 41 +25 +40 комфорт 1016.0 1008.8
12 16.09 штиль 0 20 км ясно +26.5 +9.1 33 +27 +36 жарко 1013.9 1006.8
15 16.09 З 1 20 км ясно +22.6 +12.4 52 +25 +25 комфорт 1013.3 1006.1 +26.6
18 16.09 Ю 1 20 км ясно +18.5 +8.9 54 +20 +20 1014.6 1007.3
21 16.09 ЮЗ 1 20 км ясно +14.0 +10.7 80 +14 +14 1014.4 1007.0
00 17.09 З 2 20 км 3/0 2000 м
[Ac trans]
+12.5 +10.6 88 +12 +12 1014.1 1006.6

 

Местоположение метеостанции Горячий Ключ (Краснодарский край, Россия): широта 44.63 долгота 39.10 высота над уровнем моря 62 м.

В архиве по умолчанию представлена погода в Горячем Ключе за последнюю неделю. Архивные данные за месяц целиком и за предыдущие месяцы, начиная с января 2011 года, Вы можете получить, выбрав интересующий диапазон дат из раскрывающегося списка и нажав кнопку "Ввод!".


*Определитесь, кто Вы:
робот инопланетянин человек

Внимание! Время в таблицах - всемирное. Для получения местного времени необходимо прибавить поправку, которая равна 3 ч.

Смотрите также архив погоды в соседних городах и на ближайших метеорологических станциях:

Погода в Горном (Краснодарский край, Россия) (41 км)
Погода в Джубге (Краснодарский край, Россия) (45 км)
Погода в Краснодаре (Краснодарский край, Россия) (47 км)
Погода в Туапсе (Краснодарский край, Россия) (59 км)
Погода в Белореченске (Краснодарский край, Россия) (65 км)
Погода в Магри (Краснодарский край, Россия) (68 км)
Погода в Майкопе (Адыгея, Россия) (78 км)
Погода в Геленджике (Краснодарский край, Россия) (81 км)
Погода в Шунтуке (Адыгея, Россия) (83 км)
Погода в Усть-Лабинске (Краснодарский край, Россия) (83 км)

Пояснения к столбцам:

Ветер - указаны скорость ветра в м/с - средняя за 10 мин, порывы в срок и между сроками (в фигурных скобках) и направление, откуда дует ветер: С - северный, СВ - северо-восточный, В - восточный, ЮВ - юго-восточный, Ю - южный, ЮЗ - юго-западный, З - западный, СЗ - северо-западный.
Видимость - горизонтальная дальность видимости в метрах или километрах. При видимости от 1 до 10 км при отсутствии осадков обычно наблюдается дымка, при ухудшении видимости до 1 км и менее - туман. В сухую погоду видимость может ухудшаться дымом, пылью или мглою.
Явления - указаны атмосферные явления, наблюдавшиеся в срок или в последний час перед сроком; фигурными скобками обозначены явления, наблюдавшиеся между сроками (за 1-3 часа до срока); квадратными скобками обозначены град или гололедные отложения с указанием их диаметра в мм.
Облачность - указаны через наклонную черту общая и нижняя облачность в баллах и высота нижней границы облаков в метрах; квадратными скобками обозначены формы облаков: Ci - перистые, Cs - перисто-слоистые, Cc - перисто-кучевые, Ac - высококучевые, As - высокослоистые, Sc - слоисто-кучевые, Ns - слоисто-дождевые, Cu - кучевые, Cb - кучево-дождевые. Подробнее классификацию облаков см. в Атласе облаков (PDF).
T - Температура воздуха - температура, измеренная на высоте 2 м над землей.
Td - Температура точки росы - температура, при понижении до которой содержащийся в воздухе водяной пар достигнет насыщения.
f - Относительная влажность воздуха - влажноcть воздуха, измеренная на высоте 2 м над землей.
Te - Эффективная температура - температура, которую ощущает одетый по сезону человек в тени. Характеристика душности погоды. При расчете учитывается влияние влажности воздуха и скорости ветра на теплоощущения человека.
Tes - Эффективная температура на солнце - температура, которую ощущает человек, с поправкой на солнечный нагрев. Характеристика знойности погоды. Зависит от высоты солнца над горизонтом, облачности и скорости ветра. Ночью, в пасмурную погоду, а также при ветре 12 м/с и более поправка равна нулю.
P - Атмосферное давление - приведенное к уровню моря атмосферное давление.
Po - Атмосферное давление - измеренное на уровне метеостанции атмосферное давление.
Tmin - Минимальная температура - минимум температуры воздуха на высоте 2 м над землей.
Tmax - Максимальная температура - максимум температуры воздуха на высоте 2 м над землей.
R - Количество осадков - Количество выпавших осадков за период времени, мм. При наведении курсора мыши на число - период времени, за который выпало указанное количество осадков.
R24 - Количество осадков - Количество выпавших осадков за 24 часа, мм.
S - Снежный покров - Высота снежного покрова, см. При наведении курсора мыши на число - состояние снежного покрова и степень покрытия местности в баллах.